{"data":{"norad_id":45695,"intl_designator":"2020-035AQ","name":"STARLINK-1420","alt_names":[],"object_type":"PAYLOAD","status":"ACTIVE","operator":null,"country":"US","launch_date":"2020-06-04","launch_site_code":"AFETR","launch_vehicle":null,"mission":null,"orbit_class":"UNKNOWN","rcs_meters":null,"size_class":null,"mass_kg":null,"dimensions":null,"purposes":["comms"],"wikipedia_slug":null,"has_3d_model":false,"image_url":null,"decayed_at":null,"tle_current":{"epoch":"2026-05-24T19:15:36.935712Z","epoch_age_seconds":99061,"freshness":"FRESH","line1":"1 45695U 20035AQ  26144.80251083  .00046029  00000+0  43706-3 0  9996","line2":"2 45695  53.0470  11.0978 0006009  92.5788 267.5915 15.66424998331242","mean_motion":15.66424998,"eccentricity":0.0006009,"inclination_deg":53.047,"raan_deg":11.0978,"arg_perigee_deg":92.5788,"mean_anomaly_deg":267.5915,"bstar":0.00043706,"rev_number":33124,"period_min":91.92907428307,"perigee_km":365.08915225313,"apogee_km":373.19803406999,"semimajor_km":6747.2805931616,"source":"CELESTRAK","updated_at":"2026-05-25T13:38:16.429919Z"}}}